Volver al catálogo

TIANQI 27

ActivoComunicacionesLEO
NORAD 59911·PAYLOAD·🇨🇳 China

Lanzado May 29, 2024 desde Yellow Sea Launch Area

Loading…

Próximos Pases (próximas 24 horas)

TLE

ActualizadoSource: Space-Track

Época: Sep 14, 2026, 14:01 UTC

1 59911U 24102C   26257.58451703 -.00000034  00000-0  65041-4 0  9997
2 59911  44.9770 223.6544 0008622 312.0062  48.0036 13.99175524117428

Sigue TIANQI 27 en tiempo real con AllMySat

Download on the App Store